OCO 2

Last updated on Mon Nov 03 2025 00:03:51 GMT+0000 (Coordinated Universal Time)

1 40059U 14035A 25306.40824626 .00000760 00000+0 17877-3 0 9994 2 40059 98.2149 245.8989 0001729 70.5401 289.5984 14.57081389603026
UTC large
Height (km)
Speed (km/s)
/
Latitude / Longitude
Inclination (degrees)
Orbital Period (minutes)
Azimuth
Elevation
Range (km)
Doppler Factor

Next 0 passes for location: London (51.5072 / 0.1276)

Sorry there are no passes over London.